TimeMDT,TemperatureF,Dew PointF,Humidity,Sea Level PressureIn,VisibilityMPH,Wind Direction,Wind SpeedMPH,Gust SpeedMPH,PrecipitationIn,Events,Conditions,WindDirDegrees,DateUTC
12:53 AM,32.0,24.1,73,30.30,10.0,West,10.4,-,N/A,,Clear,280,2011-10-19 06:53:00
1:53 AM,30.0,24.1,79,30.30,10.0,West,8.1,-,N/A,,Clear,270,2011-10-19 07:53:00
2:53 AM,30.0,23.0,75,30.28,10.0,West,8.1,-,N/A,,Clear,280,2011-10-19 08:53:00
3:53 AM,30.9,24.1,76,30.27,10.0,West,10.4,-,N/A,,Clear,260,2011-10-19 09:53:00
4:53 AM,30.0,24.1,79,30.26,10.0,West,10.4,-,N/A,,Clear,260,2011-10-19 10:53:00
5:53 AM,28.9,23.0,78,30.27,10.0,West,9.2,-,N/A,,Clear,270,2011-10-19 11:53:00
6:53 AM,28.9,23.0,78,30.29,10.0,West,9.2,-,N/A,,Clear,270,2011-10-19 12:53:00
7:53 AM,32.0,25.0,75,30.28,10.0,North,-9999.0,-,N/A,,Clear,0,2011-10-19 13:53:00
8:53 AM,41.0,27.0,57,30.26,10.0,WSW,8.1,-,N/A,,Clear,240,2011-10-19 14:53:00
9:53 AM,45.0,25.0,46,30.24,10.0,SW,6.9,-,N/A,,Unknown,230,2011-10-19 15:53:00
10:53 AM,48.0,26.1,42,30.22,10.0,West,11.5,-,N/A,,Clear,260,2011-10-19 16:53:00
2:53 PM,55.9,24.1,29,30.08,10.0,Variable,3.5,-,N/A,,Clear,0,2011-10-19 20:53:00
3:53 PM,55.9,23.0,28,30.07,10.0,NE,3.5,-,N/A,,Clear,40,2011-10-19 21:53:00
4:53 PM,55.0,21.9,28,30.04,10.0,ENE,3.5,-,N/A,,Clear,70,2011-10-19 22:53:00
5:53 PM,50.0,24.1,36,30.04,10.0,East,4.6,-,N/A,,Clear,90,2011-10-19 23:53:00
6:53 PM,48.9,21.9,35,30.04,10.0,ESE,3.5,-,N/A,,Clear,110,2011-10-20 00:53:00
7:53 PM,44.1,24.1,45,30.04,10.0,ESE,4.6,-,N/A,,Clear,120,2011-10-20 01:53:00
8:53 PM,42.1,24.1,49,30.04,10.0,SE,6.9,-,N/A,,Clear,140,2011-10-20 02:53:00
9:53 PM,42.1,24.1,49,30.03,10.0,SSE,11.5,-,N/A,,Clear,150,2011-10-20 03:53:00
10:53 PM,41.0,24.1,51,30.02,10.0,SSE,10.4,-,N/A,,Clear,160,2011-10-20 04:53:00